This is the latest recevied weather packets stored in our database for station/object EA1FBN. If no packets are shown the sender has not sent any weather packets the latest 10 day(s).
| Time | Temp. | Humidity | Pressure | Rain* | Wind** | Luminosity | Snow |
|---|---|---|---|---|---|---|---|
| 1778157000 | 15.56° C | 52% | 1010.4 hPa | 0 mm | - | - | - |
| 1778156700 | 15.56° C | 52% | 1010.5 hPa | 0 mm | - | - | - |
| 1778156400 | 16.11° C | 54% | 1010.6 hPa | 0 mm | - | - | - |
| 1778156100 | 16.11° C | 57% | 1010.6 hPa | 0 mm | - | - | - |
| 1778155800 | 16.11° C | 56% | 1010.6 hPa | 0 mm | - | - | - |
| 1778155501 | 16.11° C | 56% | 1010.7 hPa | 0 mm | - | - | - |
| 1778155200 | 16.11° C | 57% | 1010.7 hPa | 0 mm | - | - | - |
| 1778154900 | 16.11° C | 56% | 1010.8 hPa | 0 mm | - | - | - |
| 1778154600 | 16.67° C | 54% | 1010.9 hPa | 0 mm | - | - | - |
| 1778154300 | 17.22° C | 54% | 1010.9 hPa | 0 mm | - | - | - |
| 1778154000 | 17.78° C | 54% | 1010.9 hPa | 0 mm | - | - | - |
| 1778153700 | 17.78° C | 54% | 1011 hPa | 0 mm | - | - | - |
| 1778153400 | 17.78° C | 54% | 1011 hPa | 0 mm | - | - | - |
| 1778153100 | 17.78° C | 54% | 1011.1 hPa | 0 mm | - | - | - |
| 1778152800 | 17.22° C | 56% | 1011.2 hPa | 0 mm | - | - | - |
| 1778152500 | 16.67° C | 53% | 1011.2 hPa | 0 mm | - | - | - |
| 1778152200 | 17.22° C | 52% | 1011.3 hPa | 0 mm | - | - | - |
| 1778151900 | 17.22° C | 54% | 1011.4 hPa | 0 mm | - | - | - |
| 1778151600 | 17.22° C | 54% | 1011.4 hPa | 0 mm | - | - | - |
| 1778151300 | 16.67° C | 55% | 1011.5 hPa | 0 mm | - | - | - |
| 1778151001 | 16.67° C | 54% | 1011.6 hPa | 0 mm | - | - | - |
| 1778150701 | 16.67° C | 54% | 1011.6 hPa | 0 mm | - | - | - |
| 1778150401 | 16.67° C | 56% | 1011.7 hPa | 0 mm | - | - | - |
| 1778150101 | 16.11° C | 55% | 1011.7 hPa | 0 mm | - | - | - |
| 1778149801 | 16.11° C | 55% | 1011.8 hPa | 0 mm | - | - | - |
* Rain latest hour (hover to see other rain measurements)
** Current wind speed in m/s (hover to see current wind gust speed)